Location: Houhaj�rvi
(61.2833°N, 23.0000°E)
Time: 11:22:15
(UTC+00:00)

NOSS 2-3 (C) - Pass Details

Date: 27 February 2020
Orbit: 585 x 1627 km, 63.4° (Epoch: 26 March)

Event Time Altitude Azimuth Distance (km) Brightness Sun altitude
Rises 19:44:21 0° 263° (W) 3,053 7.7 -27.9°
Reaches altitude 10° 19:46:28 10° 266° (W) 2,232 6.9 -28.1°
Maximum altitude 19:51:33 75° 352° (N) 893 4.3 -28.6°
Enters shadow 19:51:58 71° 29° (NNE) 921 4.3 -28.6°
